Flag for Germany Weather past 2 weeks in Mosbach, Baden-Württemberg, Germany

Now
39 °F

Overcast.


Feels Like: 33 °F
Forecast: 34 / 46 °F
Wind: 9 mph from West

Location: Oehringen

Current Time: Apr 1, 2015 at 11:08:05 AM

Latest Report: Apr 1, 2015 at 10:00 AM


Visibility: 25 mi

Pressure: 30.09 "Hg

Humidity: 74%

Dew point: 31 °F

Location of MosbachLocation

Historic Weather in Mosbach — Graph

°F

Mosbach temperature yesterday

Maximum temperature yesterday: 55 °F (at 9:00 AM)
Minimum temperature yesterday: 40 °F (at 12:00 AM)
Average temperature yesterday: 48 °F

Past Weeks' High & Low Weather Summary

 TemperatureHumidityPressure
High67 °F (Mar 17, 3:00 PM)97% (Mar 28, 10:00 PM)30.30 "Hg (Mar 28, 10:00 PM)
Low30 °F (Mar 24, 6:00 AM)30% (Mar 17, 4:00 PM)29.47 "Hg (Mar 30, 12:00 AM)
Average46 °F70%29.98 "Hg
* Reported Mar 17 9:00 AM — Apr 1 10:00 AM, Mosbach, Weather by CustomWeather, © 2015

Note: Actual official high and low records may vary slightly from our data, if they occured in-between our weather recording intervals... More about our weather records

Advertising

Mosbach weather history for previous 24 hours

 ConditionsComfort  
Time TempWeatherWind HumidityBarometerVisibility
10:00 AM
Wed, Apr 1
39 °FOvercast.9 mph74%30.09 "Hg25 mi
9:00 AM39 °FPartly sunny.7 mph75%30.06 "Hg22 mi
8:00 AM39 °FOvercast.10 mph79%30.03 "Hg28 mi
7:00 AM38 °FOvercast.8 mph82%30.00 "Hg25 mi
6:00 AM38 °FOvercast.9 mph81%29.98 "Hg31 mi
5:00 AM38 °FLight rain. Overcast.9 mph82%29.97 "Hg19 mi
4:00 AM38 °FOvercast.7 mph88%29.96 "Hg43 mi
3:00 AM38 °FOvercast.7 mph91%29.96 "Hg34 mi
2:00 AM36 °FLight rain. Overcast.8 mph93%29.96 "Hg3 mi
1:00 AM36 °FRain. Low clouds.8 mph96%29.96 "Hg2 mi
12:00 AM41 °FOvercast.9 mph86%29.90 "Hg28 mi
11:00 PM
Tue, Mar 31
41 °FLight rain. Overcast.9 mph82%29.90 "Hg5 mi
10:00 PM44 °FOvercast.7 mph72%29.88 "Hg43 mi
9:00 PM44 °FOvercast.6 mph74%29.87 "Hg43 mi
8:00 PM45 °FClear.9 mph68%29.84 "Hg43 mi
7:00 PM46 °FOvercast.10 mph70%29.81 "Hg43 mi
6:00 PM44 °FOvercast.12 mph80%29.76 "Hg34 mi
5:00 PM44 °FRain. Overcast.13 mph80%29.74 "Hg9 mi
4:00 PM54 °FPassing clouds.15 mph56%29.64 "Hg16 mi
3:00 PM47 °FLight rain. Overcast.16 mph83%29.65 "Hg8 mi
2:00 PM54 °FOvercast.15 mph62%29.59 "Hg25 mi
1:00 PM54 °FOvercast.20 mph68%29.57 "Hg28 mi
12:00 PM53 °FDrizzle. Overcast.17 mph77%29.55 "Hg31 mi
11:00 AM52 °FDrizzle. Overcast.15 mph83%29.54 "Hg22 mi
Weather by CustomWeather, © 2015

See weather overviewHow to use our weather pages